Location: Cheching
(60.0667°N, 164.2167°W)
Time: 14:05:12
(UTC+00:00)

STRAND 1 - Pass Details

Date: 23 January 2021
Orbit: 768 x 780 km, 98.4° (Epoch: 04 March)

Event Time Altitude Azimuth Distance (km) Brightness Sun altitude
Rises 14:39:51 0° 100° (E) 3,250 ? -34.8°
Reaches altitude 10° 14:42:49 10° 82° (E) 2,328 ? -34.5°
Maximum altitude 14:46:10 18° 41° (NE) 1,843 ? -34.1°
Drops below altitude 10° 14:49:32 10° 360° (N) 2,340 ? -33.7°
Enters shadow 14:50:51 - 350° (N) 2,721 ? -33.6°
